Wheeler AAF, HI

1:08 AM HST on December 12, 2017 (GMT -1000)
Wheeler Army Air Field

Weather History for PHHI - September, 2013

Change the Weather History Date:

Sunday, September 15, 2013

  Actual Average Record
Temperature  
Mean Temperature 78 °F -  
Max Temperature 86 °F 82 °F 86 °F (1999)
Min Temperature 69 °F 68 °F 65 °F (2008)
Cooling Degree Days 12    
Growing Degree Days 28 (Base 50)    
Moisture  
Dew Point 67 °F    
Average Humidity 74    
Maximum Humidity 94    
Minimum Humidity 45    
Precipitation  
Precipitation 0.00 in - - ()
Sea Level Pressure  
Sea Level Pressure 29.94 in    
Wind  
Wind Speed 5 mph (East)    
Max Wind Speed 15 mph    
Max Gust Speed 23 mph    
Visibility 10 miles    
Events      
Averages and records for this station are not official NWS values.
T = Trace of Precipitation, MM = Missing Value Source: NWS Daily Summary

Daily Weather History Graph

Daily Weather History Graph

Search for Another Location

Airport or City:

Trip Planner

Search our weather history database for the weather conditions in past years. The results will help you decide how hot, cold, wet, or windy it might be!

Date:

Astronomy

Sep. 15, 2013 Rise Set
Actual Time 6:19 AM HST 6:34 PM HST
Civil Twilight 5:57 AM HST 6:56 PM HST
Nautical Twilight 5:31 AM HST 7:22 PM HST
Astronomical Twilight 5:04 AM HST 7:49 PM HST
Moon 3:50 PM HST (9/15) 2:33 AM HST (9/15)
Length of Visible Light 12h 59m
Length of Day
12h 15m
Waxing Gibbous, 84% of the Moon is Illuminated
Sep 15
Waxing Gibbous
Sep 19
Full
Sep 26
Last Quarter
Oct 4
New
Oct 11
First Quarter

Hourly Weather History & Observations

Time (HST) Temp. Heat Index Dew Point Humidity Pressure Visibility Wind Dir Wind Speed Gust Speed Precip Events Conditions
12:58 AM 71.4 °F - 66.7 °F 85% 29.91 in 10.0 mi WNW 4.6 mph - N/A   Clear
1:58 AM 71.1 °F - 66.9 °F 87% 29.90 in 10.0 mi West 5.8 mph - N/A   Clear
2:58 AM 70.9 °F - 67.6 °F 89% 29.88 in 10.0 mi NW 4.6 mph - N/A   Clear
3:13 AM 71.6 °F - 68.0 °F 88% 29.92 in 10.0 mi NW 2.3 mph - N/A   Mostly Cloudy
3:28 AM 71.6 °F - 68.0 °F 88% 29.92 in 10.0 mi NW 3.5 mph - N/A   Scattered Clouds
3:58 AM 71.2 °F - 67.5 °F 88% 29.88 in 10.0 mi NNW 2.3 mph - N/A   Clear
4:58 AM 71.6 °F - 68.4 °F 89% 29.89 in 10.0 mi NNE 3.5 mph - N/A   Scattered Clouds
5:58 AM 70.5 °F - 68.2 °F 92% 29.90 in 10.0 mi Calm Calm - N/A   Clear
6:13 AM 71.6 °F - 68.0 °F 88% 29.94 in 10.0 mi Variable 1.2 mph - N/A   Mostly Cloudy
6:25 AM 69.8 °F - 68.0 °F 94% 29.94 in 9.0 mi West 2.3 mph - N/A   Light Drizzle
6:36 AM 69.8 °F - 68.0 °F 94% 29.95 in 10.0 mi Calm Calm - N/A   Overcast
6:58 AM 71.6 °F - 69.3 °F 92% 29.93 in 10.0 mi Calm Calm - 0.00 in   Overcast
7:09 AM 73.4 °F - 69.8 °F 88% 29.97 in 10.0 mi ENE 2.3 mph - N/A   Light Drizzle
7:19 AM 73.4 °F - 69.8 °F 88% 29.97 in 10.0 mi SSW 2.3 mph - N/A   Mostly Cloudy
7:24 AM 71.6 °F - 69.8 °F 94% 29.97 in 10.0 mi SW 2.3 mph - N/A   Scattered Clouds
7:58 AM 76.1 °F - 70.9 °F 84% 29.95 in 10.0 mi SE 4.6 mph - 0.00 in   Clear
8:58 AM 79.7 °F - 68.5 °F 69% 29.96 in 10.0 mi ESE 8.1 mph - N/A   Scattered Clouds
9:58 AM 81.3 °F 83.6 °F 66.9 °F 61% 29.97 in 10.0 mi East 11.5 mph 18.4 mph N/A   Partly Cloudy
10:58 AM 82.8 °F 84.7 °F 65.5 °F 56% 29.97 in 10.0 mi Variable 6.9 mph 18.4 mph N/A   Mostly Cloudy
11:58 AM 82.4 °F 84.2 °F 65.1 °F 56% 29.96 in 10.0 mi East 8.1 mph 16.1 mph N/A   Mostly Cloudy
12:58 PM 84.2 °F 85.6 °F 64.4 °F 51% 29.95 in 10.0 mi Variable 6.9 mph 21.9 mph N/A   Scattered Clouds
1:38 PM 86.0 °F 86.6 °F 62.6 °F 45% 29.96 in 10.0 mi ESE 12.7 mph - N/A   Clear
1:58 PM 85.1 °F 85.4 °F 61.3 °F 45% 29.93 in 10.0 mi East 15.0 mph 20.7 mph N/A   Clear
2:58 PM 84.4 °F 85.4 °F 63.5 °F 49% 29.91 in 10.0 mi East 13.8 mph 21.9 mph N/A   Clear
3:58 PM 84.0 °F 85.2 °F 63.7 °F 50% 29.91 in 10.0 mi East 11.5 mph 23.0 mph N/A   Clear
4:58 PM 82.2 °F 84.0 °F 64.9 °F 56% 29.93 in 10.0 mi ENE 13.8 mph - N/A   Partly Cloudy
5:58 PM 80.2 °F 82.3 °F 66.0 °F 62% 29.94 in 10.0 mi East 11.5 mph - N/A   Scattered Clouds
6:58 PM 78.3 °F - 66.6 °F 67% 29.95 in 10.0 mi East 8.1 mph - N/A   Mostly Cloudy
7:58 PM 77.5 °F - 66.2 °F 68% 29.96 in 10.0 mi East 6.9 mph - N/A   Mostly Cloudy
8:58 PM 77.2 °F - 66.6 °F 70% 29.96 in 10.0 mi East 11.5 mph - N/A   Mostly Cloudy
9:58 PM 75.9 °F - 65.7 °F 70% 29.99 in 10.0 mi ESE 5.8 mph - N/A   Mostly Cloudy
10:58 PM 75.9 °F - 66.0 °F 71% 29.99 in 10.0 mi SSW 4.6 mph - N/A   Mostly Cloudy
11:58 PM 76.5 °F - 66.0 °F 70% 29.98 in 10.0 mi ESE 6.9 mph - N/A   Mostly Cloudy